Home > Weather > Monticello > Past weeks

Flag for USA Past Weather in Monticello, Kentucky, USA — Yesterday and Last 2 Weeks

Now
70 °F

Sunny.


Feels Like: 74 °F
Forecast: 59 / 84 °F
Wind: No wind

Location: London-Corbin Airport-Magee Field

Current Time: Jun 30, 2016 at 10:50:17 PM

Latest Report: Jun 30, 2016 at 9:53 PM


Visibility: 10 mi

Pressure: 29.97 "Hg

Humidity: 68%

Dew Point: 59 °F

Location of MonticelloLocation

Past Weather in Monticello — Graph

°F

Monticello Temperature Yesterday

Maximum temperature yesterday: 81 °F (at 3:53 PM)
Minimum temperature yesterday: 64 °F (at 6:53 AM)
Average temperature yesterday: 72 °F

High & Low Weather Summary for the Past Weeks

 TemperatureHumidityPressure
High90 °F (Jun 16, 2:53 PM)97% (Jun 25, 6:58 AM)30.34 "Hg (Jun 25, 6:58 AM)
Low57 °F (Jun 30, 6:53 AM)32% (Jun 28, 4:53 PM)29.74 "Hg (Jun 16, 6:53 PM)
Average76 °F69%30.04 "Hg
* Reported Jun 15 8:53 PM — Jun 30 8:53 PM, Monticello, Weather by CustomWeather, © 2016

Note: Actual official high and low records may vary slightly from our data, if they occured in-between our weather recording intervals... More about our weather records

Advertising

Monticello Weather History for the Previous 24 Hours

Scroll right to see more
 ConditionsComfort  
Time TempWeatherWind HumidityBarometerVisibility
8:53 PM
Thu, Jun 30
75 °FSunny.No wind55%29.97 "Hg10 mi
7:53 PM80 °FSunny.3 mph42%29.96 "Hg10 mi
6:53 PM82 °FPassing clouds.6 mph40%29.97 "Hg10 mi
5:53 PM81 °FSunny.7 mph39%29.98 "Hg10 mi
4:53 PM84 °FSunny.6 mph37%29.98 "Hg10 mi
3:53 PM84 °FSunny.7 mph36%29.98 "Hg10 mi
2:53 PM82 °FSunny.7 mph37%29.99 "Hg10 mi
1:53 PM79 °FSunny.6 mph41%30.00 "Hg10 mi
12:53 PM78 °FSunny.3 mph43%30.01 "Hg10 mi
11:53 AM78 °FSunny.5 mph48%30.03 "Hg10 mi
10:53 AM76 °FSunny.3 mph52%30.04 "Hg10 mi
9:53 AM72 °FSunny.No wind66%30.04 "Hg10 mi
8:53 AM68 °FSunny.No wind73%30.03 "Hg10 mi
7:53 AM63 °FSunny.No wind78%30.03 "Hg10 mi
6:53 AM57 °FClear.No wind90%30.03 "Hg10 mi
5:53 AM58 °FClear.3 mph90%30.03 "Hg10 mi
4:53 AM60 °FClear.5 mph83%30.01 "Hg10 mi
3:53 AM61 °FClear.3 mph81%30.01 "Hg10 mi
2:53 AM61 °FClear.5 mph81%30.02 "Hg10 mi
1:53 AM61 °FClear.No wind81%30.03 "Hg10 mi
12:53 AM65 °FClear.No wind70%30.03 "Hg10 mi
11:53 PM
Wed, Jun 29
65 °FClear.No wind70%30.02 "Hg10 mi
10:53 PM67 °FClear.6 mph66%30.03 "Hg10 mi
Weather by CustomWeather, © 2016

See weather overviewHow to use our weather pages